カタログに戻る

COSMOS 2246

運用中軍事PO
NORAD 22647·PAYLOAD·🇷🇺 Russia

打ち上げ May 11, 1993 から Plesetsk Cosmodrome

Loading…

次のパス (今後24時間)

TLE

最新Source: Space-Track

元期: Sep 14, 2026, 22:30 UTC

1 22647U 93030B   26257.93783785  .00000011  00000-0  13113-5 0  9994
2 22647  82.5800 259.4538 0011146  72.3100 287.9208 12.63637993537862

AllMySatでCOSMOS 2246をリアルタイム追跡

Download on the App Store